Location: Unspecified
(0.0000°N, 0.0000°E)
Time: 12:01:13
(UTC+00:00)

Vanguard 2 - Pass Details

Date: 15 December 2018
Orbit: 552 x 2939 km, 32.9° (Epoch: 25 March)

Event Time Altitude Azimuth Distance (km) Brightness Sun altitude
Rises 17:22:44 0° 272° (W) 2,950 11.9 7.5°
Reaches altitude 10° 17:26:52 10° 309° (NW) 1,847 9.9 6.5°
Maximum altitude 17:28:02 11° 326° (NNW) 1,756 9.6 6.2°
Drops below altitude 10° 17:29:12 10° 344° (NNW) 1,810 9.4 6.0°
Sets 17:33:06 0° 22° (NNE) 2,772 10.0 5.1°
